Flag for Australia Weather past 2 weeks in Coffs Harbour, New South Wales, Australia

Now
46 °F

Cool.


Feels Like: 44 °F
Forecast: 55 / 67 °F
Wind: 3 mph from Southeast

Location: Tamworth Airport Aws

Current Time: Sep 5, 2015 at 5:00:54 AM

Latest Report: Sep 5, 2015 at 4:00 AM


Visibility: N/A

Pressure: 30.13 "Hg

Humidity: 91%

Dew point: 43 °F

Location of Coffs HarbourLocation

Historic Weather in Coffs Harbour — Graph

°F

Coffs Harbour temperature yesterday

Maximum temperature yesterday: 65 °F (at 3:00 PM)
Minimum temperature yesterday: 42 °F (at 3:00 AM)
Average temperature yesterday: 52 °F

Past Weeks' High & Low Weather Summary

 TemperatureHumidityPressure
High74 °F (Aug 22, 3:00 PM)92% (Aug 23, 5:00 AM)30.34 "Hg (Aug 23, 5:00 AM)
Low34 °F (Aug 31, 6:00 AM)28% (Sep 2, 3:00 PM)29.75 "Hg (Sep 3, 2:00 AM)
Average52 °F74%30.11 "Hg
* Reported Aug 21 3:00 AM — Sep 5 3:00 AM, Coffs Harbour, Weather by CustomWeather, © 2015

Note: Actual official high and low records may vary slightly from our data, if they occured in-between our weather recording intervals... More about our weather records

Advertising

Coffs Harbour weather history for previous 24 hours

 ConditionsComfort  
Time TempWeatherWind HumidityBarometerVisibility
3:00 AM
Sat, Sep 5
44 °FPassing clouds.No wind90%30.13 "Hg2 mi
2:00 AM45 °FCool.7 mph91%30.14 "HgN/A
1:00 AM44 °FQuite cool.3 mph90%30.15 "HgN/A
12:00 AM48 °FCool.7 mph89%30.16 "HgN/A
11:00 PM
Fri, Sep 4
49 °FCool.9 mph88%30.16 "HgN/A
10:00 PM49 °FCool.6 mph87%30.17 "HgN/A
9:00 PM50 °FCool.5 mph86%30.16 "HgN/A
8:00 PM52 °FCool.2 mph84%30.16 "HgN/A
7:00 PM52 °FCool.5 mph83%30.15 "HgN/A
6:00 PM56 °FCool.9 mph76%30.13 "HgN/A
5:00 PM61 °FCool.14 mph65%30.11 "HgN/A
4:00 PM64 °FMild.14 mph60%30.09 "HgN/A
3:00 PM65 °FMild.9 mph52%30.09 "HgN/A
2:00 PM64 °FMild.7 mph52%30.10 "HgN/A
1:00 PM64 °FMild.5 mph52%30.11 "HgN/A
12:00 PM61 °FPassing clouds.5 mph58%30.14 "HgN/A
11:00 AM60 °FCool.6 mph64%30.15 "HgN/A
10:00 AM55 °FCool.3 mph69%30.16 "HgN/A
9:00 AM53 °FCool.3 mph72%30.14 "HgN/A
8:00 AM49 °FCool.6 mph84%30.15 "HgN/A
7:00 AM46 °FCool.1 mph89%30.12 "HgN/A
6:00 AM45 °FOvercast.5 mph90%30.09 "HgN/A
5:00 AM44 °FQuite cool.1 mph91%30.07 "HgN/A
Weather by CustomWeather, © 2015

See weather overviewHow to use our weather pages